Location: Erlenbrunn
(49.1717°N, 7.6142°E)
Time: 09:33:58
(UTC+00:00)

USA 215 - Pass Details

Date: 25 November 2020
Orbit: 1098 x 1110 km, 123.0° (Epoch: 22 January)

Event Time Altitude Azimuth Distance (km) Brightness Sun altitude
Exits shadow 19:38:19 47° 303° (WNW) 1,442 4.0 -38.6°
Drops below altitude 10° 19:43:18 10° 268° (W) 2,974 6.2 -39.4°
Sets 19:45:49 0° 264° (W) 3,932 7.0 -39.8°
